Regional Weather Roundup
Issued by NWS

Home | Current Version | Previous Version | Graphics & Text | Print | Product List | Glossary Off
Versions: 1 2 3 4 5 6 7 8 9 10 11 12 13 14 15 16 17 18 19 20 21 22 23 24 25 26 27 28 29 30 31 32 33 34 35 36 37 38 39 40 41 42 43 44 45 46 47 48 49 50

000
ASUS44 KMEG 190110
RWRTN
TENNESSEE HOURLY STATE WEATHER ROUNDUP
NATIONAL WEATHER SERVICE MEMPHIS TN
700 PM CST WED JAN 18 2017

TNZ002-004-019-021-049-052-054-088>092-190200-
WEST TENNESSEE

CITY           SKY/WX    TMP DP  RH WIND       PRES   REMARKS
MEMPHIS INTL   CLOUDY    55  45  68 E3        30.07S
NWS MEMPHIS      N/A     53 N/A N/A MISG        N/A
JACKSON        CLOUDY    51  45  79 VRB5      30.09F
DYERSBURG      CLOUDY    48  43  81 N6        30.11R
UNION CITY     CLEAR     45  45 100 CALM      30.11R
PARIS          CLEAR     43  39  87 CALM      30.10F
HUNTINGDON     CLEAR     46  43  87 SE5       30.09F
$$

TNZ008-025-027-028-033-062-065-066-190200-
NORTH MIDDLE TENNESSEE

CITY           SKY/WX    TMP DP  RH WIND       PRES   REMARKS
NASHVILLE      CLOUDY    47  40  76 CALM      30.14S
PORTLAND       CLEAR     45  41  87 CALM      30.13F
CLARKSVILLE    CLOUDY    45  39  79 SE5       30.13S
SMYRNA         CLOUDY    46  42  86 CALM      30.15F
GALLATIN       CLEAR     45  41  87 N3        30.17S
CROSSVILLE     PTCLDY    45  42  89 CALM      30.12F
$$

TNZ061-075-076-078-094-096-097-190200-
SOUTH MIDDLE TENNESSEE

CITY           SKY/WX    TMP DP  RH WIND       PRES   REMARKS
FAYETTEVILLE   MOCLDY    52  46  82 CALM      30.12S
TULLAHOMA      MOCLDY    48  43  81 CALM      30.12F
WINCHESTER     PTCLDY    48  45  87 CALM      30.13R
MCMINNVILLE    CLEAR     45  45 100 CALM      30.14S
COLUMBIA       CLEAR     46  46 100 CALM      30.13R
SHELBYVILLE    PTCLDY    46  45  93 NE3       30.14S
$$

TNZ017-018-042-046-047-190200-
NORTHEAST TENNESSEE

CITY           SKY/WX    TMP DP  RH WIND       PRES   REMARKS
TRI CITIES     CLOUDY    47  38  71 CALM      30.11S
ELIZABETHTON     N/A     43  41  93 CALM      30.11S
$$

TNZ012-013-036-069-073-074-190200-
CENTRAL EAST TENNESSEE

CITY           SKY/WX    TMP DP  RH WIND       PRES   REMARKS
KNOXVILLE      CLOUDY    53  42  66 W6        30.11R
OAK RIDGE      CLOUDY    51  43  74 CALM      30.14R
GATLINBURG     CLEAR     46  41  81 CALM      30.11R
MORRISTOWN     CLEAR     46  39  76 CALM      30.10F
JACKSBORO      CLEAR     46  39  76 CALM      30.16R
$$

TNZ083-085-099-190200-
SOUTHEAST TENNESSEE

CITY           SKY/WX    TMP DP  RH WIND       PRES   REMARKS
CHATTANOOGA    CLOUDY    57  45  64 CALM      30.12R
$$

SKY/WX REPORTED AS FAIR MEANS FEW OR NO CLOUDS BELOW
12 THOUSAND FEET.





USA.gov is the U.S. government's official web portal to all federal, state and local government web resources and services.